Date,TemperatureHighF,TemperatureAvgF,TemperatureLowF,DewpointHighF,DewpointAvgF,DewpointLowF,HumidityHigh,HumidityAvg,HumidityLow,PressureMaxIn,PressureMinIn,WindSpeedMaxMPH,WindSpeedAvgMPH,GustSpeedMaxMPH,PrecipitationSumIn
2013-10-1,83,73,65,68,65,61,89,78,56,29.85,29.70,10,2,13,0.02
2013-10-2,83,74,66,68,63,58,84,71,56,30.12,29.82,8,2,11,0.00
2013-10-3,80,70,63,63,58,54,74,67,50,30.29,30.12,8,2,12,0.00
2013-10-4,76,69,63,61,58,55,80,69,56,30.35,30.23,6,3,9,0.00
2013-10-5,74,68,62,67,62,56,87,79,60,30.26,30.06,9,3,17,0.66
2013-10-6,79,72,66,70,66,62,88,81,70,30.09,30.00,8,2,14,0.37
2013-10-7,80,73,68,70,66,64,88,80,68,30.15,30.03,7,1,9,0.00
2013-10-8,77,70,66,67,64,61,86,81,69,30.17,30.06,10,2,16,0.19
2013-10-9,74,68,64,68,63,60,89,84,77,30.17,30.06,4,1,6,0.29
2013-10-10,69,66,64,65,62,60,88,87,86,30.12,30.00,4,2,5,0.00
2013-10-15,77,72,66,68,66,60,85,80,72,30.17,29.97,7,3,10,0.00
2013-10-16,82,74,66,70,65,59,88,75,55,29.97,29.76,13,4,19,0.16
2013-10-17,81,68,59,61,57,47,83,69,31,30.09,29.91,8,2,10,0.00
2013-10-18,78,66,58,64,58,51,83,76,56,30.15,30.03,7,2,10,0.00
2013-10-19,78,68,62,64,61,57,87,78,55,30.29,30.12,7,2,9,0.00
2013-10-20,78,69,61,66,62,56,84,79,64,30.35,30.26,5,3,8,0.00
2013-10-21,79,73,69,68,65,62,84,76,63,30.29,30.20,8,3,11,0.00
2013-10-22,81,71,64,68,64,60,87,79,60,30.26,30.15,7,3,10,0.00
2013-10-23,79,71,63,68,65,59,87,81,66,30.23,30.15,8,3,12,0.00
2013-10-24,76,70,67,68,65,62,87,83,74,30.20,30.15,7,2,10,0.02
2013-10-25,81,72,65,72,66,60,86,81,73,30.23,30.15,5,2,9,0.00
2013-10-26,84,72,65,71,66,61,88,81,64,30.29,30.20,6,2,9,0.00
2013-10-27,81,72,68,70,67,64,88,83,70,30.29,30.20,5,1,8,0.00
2013-10-28,81,74,69,72,68,64,86,81,72,30.23,30.12,8,3,10,0.00
2013-10-29,81,76,71,71,69,67,86,79,71,30.12,30.00,8,2,10,0.00
2013-10-30,80,73,67,70,67,63,87,81,69,30.06,29.97,5,2,9,0.00
2013-10-31,73,67,65,66,62,61,87,85,79,30.17,30.09,5,3,8,0.00